Station 46041 (LLNR 733) - CAPE ELIZABETH - 45NM NW of Aberdeen, WA Image indicating link to RSS feed of recent meteorological observations for station 46041


Conditions at 46041 as of
(12:20 am PDT)
0720 GMT on 05/22/2024:
     

Click on the graph icon in the table below to see a time series plot of the last five days of that observation.

5-day plot - Wind Direction Wind Direction (WDIR):WNW ( 300 deg true )
5-day plot - Wind Speed Wind Speed (WSPD): 25.3 kts
5-day plot - Wind Gust Wind Gust (GST): 33.0 kts
5-day plot - Wave Height Wave Height (WVHT): 9.5 ft
5-day plot - Average Wave Period Average Period (APD): 6.0 sec
5-day plot - Mean Wave Direction Mean Wave Direction (MWD): NW ( 307 deg true )
5-day plot - Atmospheric Pressure Atmospheric Pressure (PRES):29.94 in
5-day plot - Air Temperature Air Temperature (ATMP): 50.9 °F
5-day plot - Dew Point Dew Point (DEWP): 43.3 °F
5-day plot - Wind Chill Wind Chill (CHILL): 43.3 °F
5-day plot - Wind Speed at 10 Meters Wind Speed at 10 meters (WSPD10M): 29.1 kts
5-day plot - Wind Speed at 20 Meters Wind Speed at 20 meters (WSPD20M): 31.1 kts
5-day plot -  Wind Speed, Wind Gust and Atmospheric Pressure Combined plot of Wind Speed, Gust, and Air Pressure
Supplemental Measurements
Highest 1-minute Wind Speed
Time (PDT)5-day plot - 1-Minute Wind Speed WSPD 5-day plot - 1-Minute Wind Direction WDIR
12:19 am 29.1 kts-
Previous observations
TIME
(PDT)
5-day plot - Wind Direction
WDIR
 
5-day plot - Wind Speed
WSPD
kts
5-day plot - Wind Gust
GST
kts
5-day plot - Wave Height
WVHT
ft
5-day plot - Dominant Wave Period
DPD
sec
5-day plot - Average Wave Period
APD
sec
5-day plot - Mean Wave Direction
MWD
 
5-day plot - Atmospheric Pressure
PRES
in
5-day plot - Pressure Tendency
PTDY
in
5-day plot - Air Temperature
ATMP
°F
5-day plot - Water Temperature
WTMP
°F
5-day plot - Dew Point
DEWP
°F
5-day plot - Salinity
SAL
psu
5-day plot - Visibility
VIS
nmi
5-day plot - Tide (above MLLW)
TIDE
ft
2024-05-22 12:10 amWNW 27.2 31.1 9.5-6.0 NW29.93- 51.1- 43.3---
2024-05-22 12:00 amWNW 23.3 31.1----29.94-0.04 51.1- 43.9---
2024-05-21 11:50 pmWNW 23.3 31.1 8.9 85.8WNW29.95- 51.1- 43.7---
2024-05-21 11:40 pmWNW 23.3 29.1----29.96- 51.3- 43.9---
2024-05-21 11:30 pmWNW 21.4 27.2----29.96- 51.3- 44.4---
2024-05-21 11:20 pmWNW 21.4 29.1 7.5 85.6WNW29.97- 51.3- 43.5---
2024-05-21 11:10 pmWNW 23.3 27.2----29.96- 51.3- 43.3---
2024-05-21 11:00 pmWNW 21.4 25.3----29.97-0.01 51.3- 43.5---
2024-05-21 10:50 pmWNW 21.4 27.2 6.9 65.3WNW29.98- 51.3- 43.7---
2024-05-21 10:40 pm NW 21.4 27.2----29.98- 51.3- 43.3---
2024-05-21 10:30 pmWNW 19.4 25.3----29.98- 51.4- 43.9---
2024-05-21 10:20 pmWNW 19.4 23.3 6.6 75.5 NW29.98- 51.3- 43.9---
2024-05-21 10:10 pmWNW 19.4 25.3----29.98- 51.3- 44.4---
2024-05-21 10:00 pmWNW 19.4 25.3----29.98+0.00 51.3- 43.5---
2024-05-21 09:50 pmWNW 19.4 25.3 6.2 65.4WNW29.98- 51.3- 44.2---
2024-05-21 09:40 pm NW 19.4 25.3----29.98- 51.4- 45.0---
2024-05-21 09:30 pm NW 21.4 25.3----29.98- 51.8- 45.3---
2024-05-21 09:20 pm NW 17.5 23.3 6.2 65.5WNW29.98- 51.8- 45.3---
2024-05-21 09:10 pm NW 19.4 25.3 6.2-5.5WNW29.98- 51.8- 45.3---
2024-05-21 09:00 pmWNW 19.4 25.3----29.98+0.00 51.8- 45.9---
2024-05-21 08:50 pm NW 19.4 23.3 5.9 75.4WNW29.98- 51.8- 45.5---
2024-05-21 08:40 pmWNW 19.4 23.3----29.98- 51.8- 45.9---
2024-05-21 08:30 pmWNW 17.5 23.3----29.98- 51.6- 46.0---
2024-05-21 08:20 pm NW 17.5 23.3 5.9 75.3WNW29.98- 51.6- 46.6---
2024-05-21 08:10 pm NW 17.5 21.4 5.9-5.3WNW29.98- 51.6- 46.8---
2024-05-21 08:00 pm NW 19.4 23.3----29.98-0.01 51.6- 47.3---
2024-05-21 07:50 pm NW 17.5 21.4 5.6 65.3 W29.98- 51.6- 48.6---
2024-05-21 07:40 pm NW 19.4 23.3----29.98- 51.6- 48.7---
2024-05-21 07:30 pm NW 19.4 23.3----29.98- 51.4- 49.1---
2024-05-21 07:20 pm NW 19.4 25.3 5.2 65.4WNW29.98- 51.6- 49.3---
2024-05-21 07:10 pm NW 19.4 23.3 5.2-5.4WNW29.98- 51.4- 50.0---
2024-05-21 07:00 pm NW 17.5 23.3----29.97-0.03 51.4- 50.9---
2024-05-21 06:50 pm NW 15.5 19.4 5.2 75.7WNW29.98- 51.6- 51.3---
2024-05-21 06:40 pm NW 15.5 21.4----29.98- 51.6- 51.6---
2024-05-21 06:30 pm NW 15.5 19.4----29.97- 51.6- 51.6---
2024-05-21 06:20 pm NW 15.5 21.4 4.9 75.6WNW29.97- 51.8- 51.8---
2024-05-21 06:10 pm NW 13.6 17.5 4.9-5.6WNW29.98- 51.6- 51.6---
2024-05-21 06:00 pm NW 13.6 19.4----29.98-0.02 51.8- 51.8---
2024-05-21 05:50 pm NW 13.6 15.5 5.2 75.9WNW29.98- 51.6- 51.6---
2024-05-21 05:40 pm NW 13.6 15.5----29.98- 51.6-----
2024-05-21 05:30 pm NW 11.7 15.5----29.98- 51.4-----
2024-05-21 05:20 pmWNW 11.7 13.6 5.2 76.0WNW29.98- 51.4-----
2024-05-21 05:10 pm NW 11.7 15.5 5.2-6.0WNW29.99- 51.4-----
2024-05-21 05:00 pmWNW 11.7 15.5----29.99-0.02 51.4-----
2024-05-21 04:50 pm NW 11.7 15.5 5.2 65.8 W29.99- 51.6-----
2024-05-21 04:40 pm NW 11.7 15.5----29.99- 51.6-----
2024-05-21 04:20 pm NW 11.7 13.6 4.9 166.0 W30.00- 51.6-----
2024-05-21 04:10 pm NW 9.7 13.6 4.9-6.0 W30.00- 51.6-----
2024-05-21 04:00 pm NW 9.7 13.6----30.00-0.02 51.6-----
2024-05-21 03:50 pm NW 11.7 13.6 5.6 75.8 NW29.99- 51.6-----
2024-05-21 03:40 pm NW 9.7 11.7----30.00- 52.0-----
2024-05-21 03:30 pm NW 9.7 11.7----30.00- 51.8-----
2024-05-21 03:20 pmWNW 9.7 13.6 5.2 75.8WNW30.00- 51.8-----
2024-05-21 03:10 pmWNW 11.7 15.5 5.2-5.8WNW30.00- 52.0-----
2024-05-21 03:00 pmWNW 11.7 17.5----30.00-0.03 52.2-----
2024-05-21 02:50 pmWNW 11.7 13.6 5.2 75.7 NW30.00- 52.0-----
2024-05-21 02:40 pmWNW 9.7 11.7----30.01- 52.2-----
2024-05-21 02:30 pm W 9.7 13.6----30.00- 52.2-----
2024-05-21 02:20 pm W 11.7 13.6 4.9 65.7WNW30.01- 52.2-----
2024-05-21 02:10 pm W 9.7 13.6 4.9-5.7WNW30.01- 52.3-----
2024-05-21 02:00 pm W 11.7 15.5----30.01-0.04 52.3-----
2024-05-21 01:50 pm W 11.7 15.5 5.2 65.5WNW30.01- 52.5-----
2024-05-21 01:40 pm W 11.7 15.5----30.01- 52.5-----
2024-05-21 01:30 pm W 11.7 15.5----30.01- 52.3-----
2024-05-21 01:20 pmWSW 13.6 15.5 5.2 65.6WNW30.02- 52.3-----
2024-05-21 01:10 pmWSW 11.7 15.5 5.2-5.6WNW30.02- 52.3-----
2024-05-21 01:00 pmWSW 11.7 13.6----30.02-0.05 52.3-----
2024-05-21 12:50 pmWSW 11.7 13.6 5.6 65.5WNW30.02- 52.5-----
2024-05-21 12:40 pmWSW 11.7 15.5----30.03- 52.5-----
2024-05-21 12:30 pmWSW 11.7 15.5----30.03- 52.5-----
2024-05-21 12:20 pmWSW 11.7 15.5 5.2 65.4WNW30.03- 52.5-----
2024-05-21 12:10 pmWSW 11.7 15.5 5.2-5.4WNW30.03- 52.7-----
2024-05-21 12:00 pm SW 13.6 17.5----30.03-0.06 52.7-----
2024-05-21 11:50 am SW 13.6 17.5 4.9 165.4WSW30.03- 52.7-----
2024-05-21 11:40 am SW 13.6 17.5----30.04- 52.5-----
2024-05-21 11:30 am SW 13.6 17.5----30.04- 52.5-----
2024-05-21 11:20 am SW 15.5 19.4 4.9 55.3 W30.04- 52.5-----
2024-05-21 11:10 am SW 13.6 17.5 4.9-5.3 W30.05- 52.5-----
2024-05-21 11:00 amSSW 15.5 17.5----30.05-0.06 52.3-----
2024-05-21 10:50 amSSW 13.6 17.5 4.9 65.0WNW30.05- 52.3-----
2024-05-21 10:40 amSSW 15.5 17.5----30.06- 52.2-----
2024-05-21 10:30 amSSW 15.5 17.5----30.06- 52.2-----
2024-05-21 10:20 amSSW 15.5 17.5 4.6 175.2 SW30.06- 52.0-----
2024-05-21 10:10 amSSW 15.5 19.4 4.6-5.2 SW30.06- 52.0-----
2024-05-21 10:00 amSSW 15.5 19.4----30.07-0.06 52.0-----
2024-05-21 09:50 amSSW 15.5 19.4 4.6 165.0WSW30.07- 51.8-----
2024-05-21 09:40 amSSW 15.5 19.4----30.08- 51.8-----
2024-05-21 09:30 amSSW 15.5 19.4----30.08- 51.8-----
2024-05-21 09:20 amSSW 15.5 19.4 4.3 165.0WSW30.09- 51.6-----
2024-05-21 09:10 amSSW 15.5 19.4 4.3-5.0WSW30.09- 51.6-----
2024-05-21 09:00 am SW 15.5 19.4----30.09-0.06 51.6-----
2024-05-21 08:50 amSSW 15.5 17.5 4.3 165.0WSW30.09- 51.4-----
2024-05-21 08:40 amSSW 15.5 19.4----30.09- 51.4-----
2024-05-21 08:30 amSSW 15.5 19.4----30.10- 51.4-----
2024-05-21 08:20 amSSW 15.5 17.5 4.3 54.9 W30.10- 51.4-----
2024-05-21 08:10 amSSW 13.6 19.4 4.3-4.9 W30.10- 51.3-----
2024-05-21 08:00 amSSW 13.6 17.5----30.11-0.07 51.3-----
2024-05-21 07:50 amSSW 13.6 17.5 4.3 175.0 SW30.11- 51.3-----
2024-05-21 07:40 am SW 13.6 15.5 4.3-5.0 SW30.11- 51.3-----
2024-05-21 07:30 amSSW 13.6 17.5----30.12- 51.3-----
2024-05-21 07:20 amSSW 11.7 15.5 3.9 175.0WSW30.12- 51.1-----
2024-05-21 07:10 am SW 13.6 17.5----30.13- 51.1-----
2024-05-21 07:00 am SW 13.6 15.5----30.13-0.06 51.1-----
2024-05-21 06:50 am SW 13.6 15.5 3.9 155.0 W30.13- 50.9-----
2024-05-21 06:40 am SW 13.6 15.5----30.13- 51.1-----
2024-05-21 06:30 am SW 13.6 15.5----30.14- 50.9-----
2024-05-21 06:20 am SW 13.6 15.5 3.9 155.1 W30.14- 51.1-----
2024-05-21 06:10 am SW 13.6 15.5----30.15- 50.9-----
2024-05-21 06:00 am SW 11.7 15.5----30.15-0.05 50.9-----
2024-05-21 05:50 am SW 11.7 15.5 3.9 165.1 SW30.16- 50.9-----
2024-05-21 05:40 amWSW 11.7 15.5----30.16- 50.9-----
2024-05-21 05:30 amWSW 11.7 15.5----30.16- 50.9-----
2024-05-21 05:20 amWSW 11.7 15.5 3.9 165.2 W30.16- 50.7-----
2024-05-21 05:10 amWSW 11.7 13.6----30.17- 50.9-----
2024-05-21 05:00 amWSW 11.7 13.6----30.17-0.05 50.9-----
2024-05-21 04:50 amWSW 11.7 13.6 3.9 175.5WSW30.18- 50.9-----
2024-05-21 04:40 amWSW 11.7 13.6----30.18- 50.9-----
2024-05-21 04:30 amWSW 11.7 13.6----30.18- 50.9-----
2024-05-21 04:20 amWSW 11.7 13.6 3.9 175.5WSW30.19- 50.9-----
2024-05-21 04:10 amWSW 9.7 13.6 3.9-5.5WSW30.19- 50.9-----
2024-05-21 04:00 amWSW 9.7 13.6----30.19-0.05 50.9-----
2024-05-21 03:50 amWSW 11.7 13.6 3.9 65.6WNW30.19- 50.9-----
2024-05-21 03:40 amWSW 11.7 15.5 3.9-5.6WNW30.19- 50.9-----
2024-05-21 03:30 amWSW 9.7 13.6----30.19- 51.1-----
2024-05-21 03:20 am W 9.7 13.6 4.3 166.0 SW30.20- 50.9-----
2024-05-21 03:10 am W 9.7 11.7 4.3-6.0 SW30.20- 51.1-----
2024-05-21 03:00 am W 9.7 11.7----30.20-0.05 50.9-----
2024-05-21 02:50 am W 9.7 11.7 3.9 176.1SSW30.21- 50.9-----
2024-05-21 02:40 am W 7.8 9.7 3.9-6.1SSW30.21- 50.9-----
2024-05-21 02:30 am W 7.8 9.7----30.21- 50.9-----
2024-05-21 02:20 am W 7.8 11.7 3.9 175.9 SW30.22- 51.1-----
2024-05-21 02:10 am W 7.8 9.7----30.22- 51.1-----
2024-05-21 02:00 am W 7.8 9.7----30.22-0.04 50.9-----
2024-05-21 01:50 am W 7.8 9.7 3.9 165.8SSW30.23- 51.1-----
2024-05-21 01:40 am W 7.8 9.7----30.23- 51.1-----
2024-05-21 01:30 am W 7.8 9.7----30.23- 51.1-----
2024-05-21 01:20 am W 7.8 9.7 4.3 175.8SSW30.23- 51.1-----
2024-05-21 01:10 am W 7.8 9.7 4.3-5.8SSW30.23- 51.1-----
2024-05-21 01:00 am W 5.8 7.8----30.24-0.05 51.1-----
2024-05-21 12:50 am W 5.8 7.8 4.3 176.0WSW30.24- 50.9-----
2024-05-21 12:40 amWNW 5.8 7.8----30.24- 50.9-----
2024-05-21 12:30 amWNW 7.8 9.7----30.24- 50.9-----
2024-05-21 12:20 amWNW 5.8 7.8 4.3 175.8 SW30.25- 50.9-----
2024-05-21 12:10 amWNW 5.8 7.8 4.3-5.8 SW30.25- 50.9-----
2024-05-21 12:00 amWNW 5.8 9.7----30.25-0.03 50.7-----
2024-05-20 11:50 pmWNW 7.8 9.7 4.6 176.2 W30.26- 50.7-----

Detailed Wave Summary
for 46041 as of (12:10 am PDT)
0710 GMT on 05/22/2024:

These wave data are displayed in rounded times.

     

Click on the graph icon in the table below to see a time series plot of the last five days of that observation.

5-day plot - Significant Wave Height Significant Wave Height (WVHT): 9.5 ft
5-day plot - Swell Height Swell Height (SwH): 3.3 ft
5-day plot - Swell Period Swell Period (SwP): 10.8 sec
5-day plot - Swell Direction Swell Direction (SwD): NW
5-day plot - Wind Wave Height Wind Wave Height (WWH): 9.2 ft
5-day plot - Wind Wave Period Wind Wave Period (WWP): 7.7 sec
5-day plot - Wind Wave Direction Wind Wave Direction (WWD): NW
5-day plot - Wave Steepness Wave Steepness (STEEPNESS): STEEP
5-day plot - Average Wave Period Average Wave Period (APD): 6.0 sec
Previous observations
TIME
(PDT)
5-day plot - Wave Height
WVHT
ft
5-day plot - Swell Height
SwH
ft
5-day plot - Swell Period
SwP
sec
5-day plot - Swell Direction
SwD
 
5-day plot - Wind Wave Height
WWH
ft
5-day plot - Wind Wave Period
WWP
sec
5-day plot - Wind Wave Direction
WWD
 
5-day plot - Wave Steepness
STEEPNESS
 
5-day plot - Average Wave Period
APD
sec
2024-05-21 11:40 pm 8.9 2.6 10.8WNW 8.2 7.7 WNW STEEP 5.8
2024-05-21 11:10 pm 7.5 2.6 11.4WNW 7.2 7.7 WNW STEEP 5.6
2024-05-21 10:40 pm 6.9 2.3 11.4 NW 6.6 6.2 WNWVERY_STEEP 5.3
2024-05-21 10:10 pm 6.6 3.0 10.8 NW 5.9 7.1 NW STEEP 5.5
2024-05-21 09:40 pm 6.2 2.6 11.4WNW 5.6 6.2 WNWVERY_STEEP 5.4
2024-05-21 09:10 pm 6.2 3.0 11.4WNW 5.6 5.9 WNWVERY_STEEP 5.5
2024-05-21 08:40 pm 5.9 2.6 11.4 NW 5.2 6.7 WNW STEEP 5.4
2024-05-21 08:10 pm 5.9 3.0 11.4WNW 5.2 7.1 WNW STEEP 5.3
2024-05-21 07:40 pm 5.6 3.0 11.4WNW 4.6 6.2 WVERY_STEEP 5.3
2024-05-21 07:10 pm 5.2 3.3 7.1 NW 3.9 6.2 WNW STEEP 5.4
2024-05-21 06:40 pm 5.2 2.6 11.4 NW 4.6 7.1 WNW STEEP 5.7
2024-05-21 06:10 pm 4.9 2.6 16.0WSW 4.3 6.7 WNW STEEP 5.6
2024-05-21 05:40 pm 5.2 3.6 7.1WNW 3.6 5.6 W STEEP 5.9
2024-05-21 05:10 pm 5.2 4.3 7.1WNW 3.0 5.6 W STEEP 6.0
2024-05-21 04:40 pm 5.2 3.9 6.2 W 3.3 5.6 WSW STEEP 5.8
2024-05-21 04:10 pm 4.9 4.6 16.0 W 2.0 4.5 W SWELL 6.0
2024-05-21 03:40 pm 5.6 4.9 6.7 NW 2.3 3.8 WSW STEEP 5.8
2024-05-21 03:10 pm 5.2 3.9 6.7WNW 3.6 5.9 WNW STEEP 5.8
2024-05-21 02:40 pm 5.2 4.9 6.7 NW 2.3 4.2 W STEEP 5.7
2024-05-21 02:10 pm 4.9 4.3 6.2WNW 2.6 4.3 WSW STEEP 5.7
2024-05-21 01:40 pm 5.2 3.9 6.2WNW 3.6 5.6 W STEEP 5.5
2024-05-21 01:10 pm 5.2 3.9 6.2WNW 3.6 5.3 WSW STEEP 5.6
2024-05-21 12:40 pm 5.6 4.6 5.6WNW 3.3 4.2 WVERY_STEEP 5.5
2024-05-21 12:10 pm 5.2 3.6 6.2WNW 3.6 5.6 W STEEP 5.4
2024-05-21 11:40 am 4.9 3.0 16.0WSW 4.3 6.7 WNW AVERAGE 5.4
2024-05-21 11:10 am 4.9 2.6 17.4SSW 4.3 5.3 WVERY_STEEP 5.3
2024-05-21 10:40 am 4.9 2.0 16.0 SW 4.3 5.9 WNWVERY_STEEP 5.0
2024-05-21 10:10 am 4.6 2.3 17.4 SW 3.9 5.6 WNW AVERAGE 5.2
2024-05-21 09:40 am 4.6 2.3 16.0WSW 3.9 5.9 WNW AVERAGE 5.0
2024-05-21 09:10 am 4.3 2.3 16.0WSW 3.6 5.3 WNW AVERAGE 5.0
2024-05-21 08:40 am 4.3 2.3 16.0WSW 3.6 5.9 WNW AVERAGE 5.0
2024-05-21 08:10 am 4.3 2.0 16.0WSW 3.6 4.5 WVERY_STEEP 4.9
2024-05-21 07:40 am 4.3 2.3 17.4 SW 3.6 6.2 WNW AVERAGE 5.0
2024-05-21 07:10 am 3.9 2.3 17.4WSW 3.3 5.3 WNW AVERAGE 5.0
2024-05-21 06:40 am 3.9 2.3 14.8 W 3.3 5.6 WNW AVERAGE 5.0
2024-05-21 06:10 am 3.9 2.6 14.8 W 3.0 5.3 WNW AVERAGE 5.1
2024-05-21 05:40 am 3.9 3.0 16.0 SW 3.0 4.3 WNW SWELL 5.1
2024-05-21 05:10 am 3.9 3.0 16.0 W 2.6 5.0 NW SWELL 5.2
2024-05-21 04:40 am 3.9 3.3 17.4WSW 2.3 5.3 WNW SWELL 5.5
2024-05-21 04:10 am 3.9 3.3 17.4WSW 2.3 5.0 WNW SWELL 5.5
2024-05-21 03:40 am 3.9 3.0 6.2WNW 2.3 5.6 WNW STEEP 5.6
2024-05-21 03:10 am 4.3 3.9 16.0 SW 1.6 4.0 WNW SWELL 6.0
2024-05-21 02:40 am 3.9 3.9 17.4SSW 1.3 3.4 WNW SWELL 6.1
2024-05-21 02:10 am 3.9 3.6 17.4 SW 1.3 3.8 WNW SWELL 5.9
2024-05-21 01:40 am 3.9 3.6 16.0SSW 1.3 3.8 WNW SWELL 5.8
2024-05-21 01:10 am 4.3 3.9 17.4SSW 1.3 4.0 NW SWELL 5.8
2024-05-21 12:40 am 4.3 3.9 17.4WSW 1.3 3.8 WNW SWELL 6.0
2024-05-21 12:10 am 4.3 3.9 17.4 SW 1.3 3.7 WNW SWELL 5.8

Plot of wave energy versus frequency (and period)